CST,Max TemperatureF,Mean TemperatureF,Min TemperatureF,Max Dew PointF,MeanDew PointF,Min DewpointF,Max Humidity, Mean Humidity, Min Humidity, Max Sea Level PressureIn, Mean Sea Level PressureIn, Min Sea Level PressureIn, Max VisibilityMiles, Mean VisibilityMiles, Min VisibilityMiles, Max Wind SpeedMPH, Mean Wind SpeedMPH, Max Gust SpeedMPH,PrecipitationIn, CloudCover, Events, WindDirDegrees
2013-2-1,24,18,12,19,10,5,88,70,49,30.52,30.39,30.16,10,10,10,20,12,31,0.00,3,Snow,125
2013-2-2,37,28,20,34,27,14,100,86,68,30.38,30.18,30.06,10,7,0,14,7,,0.00,7,Fog-Snow,42
2013-2-3,35,28,21,34,30,20,100,91,79,30.22,30.08,29.99,10,7,0,17,7,24,0.06,7,Fog-Rain-Snow,80
2013-2-4,52,35,18,34,26,18,100,65,35,30.18,30.04,29.94,10,9,4,14,4,20,0.00,2,Rain,39
2013-2-5,54,44,34,39,35,29,79,66,49,30.11,29.99,29.94,10,10,2,13,7,18,0.03,4,,61
2013-2-6,54,38,22,34,29,21,96,73,33,30.27,30.22,30.13,10,10,6,7,1,,0.00,0,,155
2013-2-7,59,48,36,46,37,30,93,66,37,30.18,30.06,29.94,10,10,8,13,3,,0.00,3,Rain,347
2013-2-8,48,40,32,48,39,26,100,91,76,30.38,30.10,29.89,10,8,2,16,7,21,0.08,8,Rain,123
2013-2-9,52,38,24,27,25,21,93,64,33,30.43,30.34,30.23,10,10,9,7,4,,0.00,2,,233
2013-2-10,59,52,45,54,40,25,93,69,34,30.22,30.05,29.91,10,7,1,22,11,33,0.20,5,Rain,353
2013-2-11,57,44,31,56,39,23,100,71,34,30.19,30.05,29.93,10,9,2,17,11,23,0.03,3,Rain,65
2013-2-12,50,38,25,33,29,24,96,66,40,30.24,30.10,29.89,10,10,10,7,2,,0.00,1,,213
2013-2-13,43,38,32,37,35,31,100,93,63,30.05,29.85,29.75,10,6,1,12,5,16,0.20,8,Rain,155
2013-2-14,55,41,27,38,31,27,100,83,43,30.07,30.03,29.99,10,9,4,18,4,22,0.00,2,,43
2013-2-15,43,34,26,37,31,20,100,86,66,30.21,30.13,30.06,10,8,2,12,2,,0.02,4,Rain,134
2013-2-16,33,28,21,22,17,7,92,66,41,30.22,30.15,30.07,10,9,2,16,7,25,0.00,3,Snow,144
2013-2-17,38,24,11,16,13,8,88,65,30,30.33,30.28,30.22,10,10,10,12,2,,0.00,0,,94
2013-2-18,59,40,21,38,27,15,81,50,31,30.27,30.10,29.89,10,9,2,26,10,37,0.08,2,Rain,10
2013-2-19,45,36,27,39,32,17,100,76,43,30.24,30.01,29.86,10,7,2,22,14,29,0.06,5,Rain,81
2013-2-20,34,26,19,18,15,11,85,65,42,30.36,30.31,30.25,10,10,10,12,6,,0.00,0,,146
2013-2-21,45,33,21,36,25,15,100,74,33,30.35,30.16,30.00,10,7,1,15,6,18,0.53,4,Rain,242
2013-2-22,59,49,39,48,44,37,100,84,62,30.05,29.99,29.92,10,8,1,21,9,29,0.08,5,Rain,6
2013-2-23,47,40,29,45,36,24,93,80,58,30.04,30.00,29.94,10,10,6,8,4,,0.00,6,,132
2013-2-24,50,35,20,28,23,19,100,73,33,30.18,30.13,30.04,10,8,2,10,1,,0.00,0,,188
2013-2-25,59,42,24,30,26,21,88,54,27,30.13,29.99,29.73,10,10,10,10,5,,0.00,2,,239
2013-2-26,54,46,39,50,43,33,94,81,48,29.70,29.55,29.44,10,8,1,23,14,31,0.08,7,Rain,10
2013-2-27,39,36,33,36,34,31,100,88,73,29.90,29.82,29.69,10,8,2,18,11,24,0.03,8,Rain,62
2013-2-28,34,32,31,32,29,26,93,86,76,30.06,29.95,29.83,10,7,2,13,8,21,0.02,8,Rain-Snow,95